Time,TemperatureF,DewpointF,PressureIn,WindDirection,WindDirectionDegrees,WindSpeedMPH,WindSpeedGustMPH,Humidity,HourlyPrecipIn,Conditions,Clouds,dailyrainin,SoftwareType,DateUTC
2013-09-26 00:03:00,59.3,58.0,29.91,SSE,164,3.0,4.0,94,0.00,,,0.00,weatherlink.com 1.10,2013-09-26 04:03:00,
2013-09-26 00:18:00,59.3,58.0,29.91,SSW,194,1.0,4.0,94,0.00,,,0.00,weatherlink.com 1.10,2013-09-26 04:18:00,
2013-09-26 00:33:00,59.3,57.0,29.91,SE,141,2.0,5.0,93,0.00,,,0.00,weatherlink.com 1.10,2013-09-26 04:33:00,
2013-09-26 00:48:00,59.3,57.0,29.91,SE,127,0.0,1.0,93,0.00,,,0.00,weatherlink.com 1.10,2013-09-26 04:48:00,
2013-09-26 01:03:00,59.3,57.0,29.91,SE,131,2.0,3.0,93,0.00,,,0.00,weatherlink.com 1.10,2013-09-26 05:03:00,
2013-09-26 01:18:00,59.3,57.0,29.90,SE,131,0.0,2.0,93,0.00,,,0.00,weatherlink.com 1.10,2013-09-26 05:18:00,
2013-09-26 01:33:00,59.4,58.0,29.91,SE,142,0.0,1.0,94,0.00,,,0.00,weatherlink.com 1.10,2013-09-26 05:33:00,
2013-09-26 01:48:00,59.3,58.0,29.91,SE,138,2.0,3.0,94,0.00,,,0.00,weatherlink.com 1.10,2013-09-26 05:48:00,
2013-09-26 02:03:00,59.2,58.0,29.91,SSE,158,0.0,3.0,94,0.00,,,0.00,weatherlink.com 1.10,2013-09-26 06:03:00,
2013-09-26 02:18:00,59.2,58.0,29.90,SSE,153,0.0,3.0,94,0.00,,,0.00,weatherlink.com 1.10,2013-09-26 06:18:00,
2013-09-26 02:33:00,59.3,58.0,29.91,SW,225,0.0,2.0,94,0.00,,,0.00,weatherlink.com 1.10,2013-09-26 06:33:00,
2013-09-26 02:48:00,59.1,58.0,29.90,SW,236,0.0,1.0,95,0.00,,,0.00,weatherlink.com 1.10,2013-09-26 06:48:00,
2013-09-26 03:03:00,59.0,58.0,29.90,SE,142,0.0,1.0,95,0.00,,,0.00,weatherlink.com 1.10,2013-09-26 07:03:00,
2013-09-26 03:18:00,59.1,58.0,29.90,South,187,0.0,1.0,95,0.00,,,0.00,weatherlink.com 1.10,2013-09-26 07:18:00,
2013-09-26 03:33:00,59.4,58.0,29.90,NW,311,0.0,0.0,95,0.00,,,0.00,weatherlink.com 1.10,2013-09-26 07:33:00,
2013-09-26 03:48:00,59.3,58.0,29.90,NW,310,0.0,0.0,95,0.00,,,0.00,weatherlink.com 1.10,2013-09-26 07:48:00,
2013-09-26 04:03:00,59.2,58.0,29.90,NNE,29,0.0,0.0,95,0.00,,,0.00,weatherlink.com 1.10,2013-09-26 08:03:00,
2013-09-26 04:18:00,59.3,58.0,29.90,NNW,336,0.0,2.0,95,0.00,,,0.00,weatherlink.com 1.10,2013-09-26 08:18:00,
2013-09-26 04:33:00,59.5,58.0,29.90,NNE,20,1.0,3.0,95,0.00,,,0.00,weatherlink.com 1.10,2013-09-26 08:33:00,
2013-09-26 04:48:00,59.4,58.0,29.90,NNE,33,1.0,1.0,94,0.00,,,0.00,weatherlink.com 1.10,2013-09-26 08:48:00,
2013-09-26 05:04:00,59.7,58.0,29.91,NNW,345,0.0,2.0,94,0.00,,,0.00,weatherlink.com 1.10,2013-09-26 09:04:00,
2013-09-26 05:18:00,59.9,58.0,29.91,North,358,4.0,4.0,94,0.00,,,0.00,weatherlink.com 1.10,2013-09-26 09:18:00,
2013-09-26 05:33:00,59.6,58.0,29.91,NE,34,1.0,3.0,94,0.00,,,0.00,weatherlink.com 1.10,2013-09-26 09:33:00,
2013-09-26 05:48:00,59.4,58.0,29.91,ENE,62,0.0,1.0,95,0.00,,,0.00,weatherlink.com 1.10,2013-09-26 09:48:00,
2013-09-26 06:03:00,59.1,58.0,29.91,NNW,337,0.0,1.0,95,0.00,,,0.00,weatherlink.com 1.10,2013-09-26 10:03:00,
2013-09-26 06:18:00,59.0,58.0,29.91,NE,34,0.0,1.0,95,0.00,,,0.00,weatherlink.com 1.10,2013-09-26 10:18:00,
2013-09-26 06:33:00,59.0,58.0,29.92,NNW,335,1.0,2.0,95,0.00,,,0.00,weatherlink.com 1.10,2013-09-26 10:33:00,
2013-09-26 06:48:00,59.0,58.0,29.92,NNW,336,1.0,3.0,96,0.00,,,0.00,weatherlink.com 1.10,2013-09-26 10:48:00,
2013-09-26 07:03:00,58.8,58.0,29.93,NNW,336,1.0,2.0,96,0.00,,,0.00,weatherlink.com 1.10,2013-09-26 11:03:00,
2013-09-26 07:18:00,58.7,58.0,29.93,NNW,335,1.0,3.0,96,0.00,,,0.00,weatherlink.com 1.10,2013-09-26 11:18:00,
2013-09-26 07:33:00,58.9,58.0,29.94,NW,307,2.0,4.0,96,0.00,,,0.00,weatherlink.com 1.10,2013-09-26 11:33:00,
2013-09-26 07:48:00,58.9,58.0,29.94,NNW,348,2.0,3.0,96,0.00,,,0.00,weatherlink.com 1.10,2013-09-26 11:48:00,
2013-09-26 08:03:00,59.1,58.0,29.95,NW,326,0.0,3.0,96,0.00,,,0.00,weatherlink.com 1.10,2013-09-26 12:03:00,
2013-09-26 08:18:00,59.1,58.0,29.95,NW,323,2.0,2.0,96,0.00,,,0.00,weatherlink.com 1.10,2013-09-26 12:18:00,
2013-09-26 08:33:00,59.8,58.0,29.95,NNW,344,0.0,2.0,95,0.00,,,0.00,weatherlink.com 1.10,2013-09-26 12:33:00,
2013-09-26 08:48:00,60.4,59.0,29.96,NNW,328,0.0,1.0,94,0.00,,,0.00,weatherlink.com 1.10,2013-09-26 12:48:00,
2013-09-26 09:04:00,60.5,59.0,29.96,NW,323,0.0,1.0,93,0.00,,,0.00,weatherlink.com 1.10,2013-09-26 13:04:00,
2013-09-26 09:19:00,61.0,59.0,29.97,NNE,33,0.0,2.0,92,0.00,,,0.00,weatherlink.com 1.10,2013-09-26 13:19:00,
2013-09-26 09:34:00,61.5,59.0,29.98,NNE,25,1.0,2.0,91,0.00,,,0.00,weatherlink.com 1.10,2013-09-26 13:34:00,
2013-09-26 09:49:00,62.0,59.0,29.98,NNW,332,0.0,2.0,90,0.00,,,0.00,weatherlink.com 1.10,2013-09-26 13:49:00,
2013-09-26 10:04:00,62.2,59.0,29.98,WNW,291,0.0,2.0,89,0.00,,,0.00,weatherlink.com 1.10,2013-09-26 14:04:00,
2013-09-26 10:19:00,63.2,60.0,29.98,West,267,0.0,1.0,88,0.00,,,0.00,weatherlink.com 1.10,2013-09-26 14:19:00,
2013-09-26 10:34:00,64.0,60.0,29.99,NW,308,0.0,1.0,86,0.00,,,0.00,weatherlink.com 1.10,2013-09-26 14:34:00,
2013-09-26 10:49:00,65.0,60.0,29.99,WNW,284,0.0,1.0,84,0.00,,,0.00,weatherlink.com 1.10,2013-09-26 14:49:00,
2013-09-26 11:04:00,64.6,60.0,29.99,NW,323,0.0,1.0,86,0.00,,,0.00,weatherlink.com 1.10,2013-09-26 15:04:00,
2013-09-26 11:19:00,65.1,61.0,29.99,WNW,300,1.0,2.0,86,0.00,,,0.00,weatherlink.com 1.10,2013-09-26 15:19:00,
2013-09-26 11:34:00,67.2,62.0,29.99,NNW,344,3.0,4.0,82,0.00,,,0.00,weatherlink.com 1.10,2013-09-26 15:34:00,
2013-09-26 11:49:00,67.7,62.0,29.98,NW,304,0.0,2.0,81,0.00,,,0.00,weatherlink.com 1.10,2013-09-26 15:49:00,
2013-09-26 12:04:00,67.2,61.0,29.99,NW,319,0.0,3.0,81,0.00,,,0.00,weatherlink.com 1.10,2013-09-26 16:04:00,
2013-09-26 12:19:00,68.8,62.0,29.99,North,11,0.0,6.0,78,0.00,,,0.00,weatherlink.com 1.10,2013-09-26 16:19:00,
2013-09-26 12:34:00,71.2,63.0,29.98,SW,214,0.0,4.0,75,0.00,,,0.00,weatherlink.com 1.10,2013-09-26 16:34:00,
2013-09-26 12:49:00,71.5,62.0,29.98,WSW,256,1.0,4.0,71,0.00,,,0.00,weatherlink.com 1.10,2013-09-26 16:49:00,
2013-09-26 13:04:00,71.2,62.0,29.97,NNE,19,4.0,7.0,73,0.00,,,0.00,weatherlink.com 1.10,2013-09-26 17:04:00,
2013-09-26 13:19:00,69.9,61.0,29.97,NNW,348,7.0,10.0,74,0.00,,,0.00,weatherlink.com 1.10,2013-09-26 17:19:00,
2013-09-26 13:34:00,69.5,61.0,29.97,NNW,344,1.0,10.0,75,0.00,,,0.00,weatherlink.com 1.10,2013-09-26 17:34:00,
2013-09-26 13:49:00,69.4,61.0,29.97,NNW,335,5.0,9.0,75,0.00,,,0.00,weatherlink.com 1.10,2013-09-26 17:49:00,
2013-09-26 14:04:00,69.6,61.0,29.97,NW,323,1.0,5.0,75,0.00,,,0.00,weatherlink.com 1.10,2013-09-26 18:04:00,
2013-09-26 14:34:00,70.2,62.0,29.96,SSE,152,4.0,7.0,75,0.00,,,0.00,weatherlink.com 1.10,2013-09-26 18:34:00,
2013-09-26 14:49:00,68.8,62.0,29.96,SE,135,3.0,6.0,79,0.00,,,0.00,weatherlink.com 1.10,2013-09-26 18:49:00,
2013-09-26 15:04:00,69.4,62.0,29.96,SSW,195,3.0,7.0,77,0.00,,,0.00,weatherlink.com 1.10,2013-09-26 19:04:00,
2013-09-26 15:19:00,69.7,62.0,29.96,SSE,147,2.0,3.0,77,0.00,,,0.00,weatherlink.com 1.10,2013-09-26 19:19:00,
2013-09-26 15:34:00,69.9,62.0,29.95,South,191,4.0,5.0,76,0.00,,,0.00,weatherlink.com 1.10,2013-09-26 19:34:00,
2013-09-26 15:49:00,69.2,62.0,29.96,SSW,212,0.0,5.0,78,0.00,,,0.00,weatherlink.com 1.10,2013-09-26 19:49:00,
2013-09-26 16:04:00,69.0,63.0,29.96,SE,145,3.0,3.0,80,0.00,,,0.00,weatherlink.com 1.10,2013-09-26 20:04:00,
2013-09-26 16:19:00,69.0,63.0,29.96,SSW,205,4.0,6.0,80,0.00,,,0.00,weatherlink.com 1.10,2013-09-26 20:19:00,
2013-09-26 16:34:00,69.4,62.0,29.96,SSE,150,4.0,5.0,78,0.00,,,0.00,weatherlink.com 1.10,2013-09-26 20:34:00,
2013-09-26 16:49:00,71.6,63.0,29.96,NNE,20,6.0,12.0,73,0.00,,,0.00,weatherlink.com 1.10,2013-09-26 20:49:00,
2013-09-26 17:04:00,72.6,60.0,29.96,NW,309,4.0,10.0,65,0.00,,,0.00,weatherlink.com 1.10,2013-09-26 21:04:00,
2013-09-26 17:19:00,73.5,60.0,29.96,WNW,288,1.0,8.0,63,0.00,,,0.00,weatherlink.com 1.10,2013-09-26 21:19:00,
2013-09-26 17:34:00,73.5,59.0,29.97,West,277,2.0,7.0,61,0.00,,,0.00,weatherlink.com 1.10,2013-09-26 21:34:00,
2013-09-26 17:49:00,72.9,63.0,29.97,SSE,167,2.0,6.0,70,0.00,,,0.00,weatherlink.com 1.10,2013-09-26 21:49:00,
2013-09-26 18:04:00,71.4,62.0,29.98,SSW,195,2.0,7.0,72,0.00,,,0.00,weatherlink.com 1.10,2013-09-26 22:04:00,
2013-09-26 18:19:00,70.7,62.0,29.98,WSW,239,1.0,5.0,74,0.00,,,0.00,weatherlink.com 1.10,2013-09-26 22:19:00,
2013-09-26 18:34:00,69.9,61.0,29.98,SW,229,4.0,6.0,74,0.00,,,0.00,weatherlink.com 1.10,2013-09-26 22:34:00,
2013-09-26 18:49:00,68.4,61.0,29.99,SSW,193,4.0,5.0,77,0.00,,,0.00,weatherlink.com 1.10,2013-09-26 22:49:00,
2013-09-26 19:04:00,67.4,61.0,29.99,SSW,197,3.0,5.0,80,0.00,,,0.00,weatherlink.com 1.10,2013-09-26 23:04:00,
2013-09-26 19:20:00,66.7,61.0,29.99,SSW,211,0.0,5.0,82,0.00,,,0.00,weatherlink.com 1.10,2013-09-26 23:20:00,
2013-09-26 19:35:00,65.8,61.0,30.00,ESE,120,1.0,3.0,84,0.00,,,0.00,weatherlink.com 1.10,2013-09-26 23:35:00,
2013-09-26 19:50:00,64.6,60.0,30.00,SW,226,1.0,1.0,86,0.00,,,0.00,weatherlink.com 1.10,2013-09-26 23:50:00,
2013-09-26 20:05:00,63.2,60.0,30.00,South,184,0.0,2.0,90,0.00,,,0.00,weatherlink.com 1.10,2013-09-27 00:05:00,
2013-09-26 20:20:00,62.3,60.0,30.01,SSW,203,0.0,1.0,92,0.00,,,0.00,weatherlink.com 1.10,2013-09-27 00:20:00,
2013-09-26 20:35:00,61.8,60.0,30.01,SW,226,0.0,1.0,93,0.00,,,0.00,weatherlink.com 1.10,2013-09-27 00:35:00,
2013-09-26 20:50:00,60.9,59.0,30.02,SW,226,0.0,1.0,93,0.00,,,0.00,weatherlink.com 1.10,2013-09-27 00:50:00,
2013-09-26 21:05:00,60.7,59.0,30.03,NW,316,0.0,1.0,94,0.00,,,0.00,weatherlink.com 1.10,2013-09-27 01:05:00,
2013-09-26 21:20:00,59.9,58.0,30.03,NNE,30,0.0,1.0,94,0.00,,,0.00,weatherlink.com 1.10,2013-09-27 01:20:00,
2013-09-26 21:35:00,59.0,58.0,30.04,NNE,30,0.0,1.0,95,0.00,,,0.00,weatherlink.com 1.10,2013-09-27 01:35:00,
2013-09-26 21:50:00,58.7,58.0,30.04,NNE,30,0.0,0.0,96,0.00,,,0.00,weatherlink.com 1.10,2013-09-27 01:50:00,
2013-09-26 22:05:00,57.9,57.0,30.04,NNE,30,0.0,0.0,96,0.00,,,0.00,weatherlink.com 1.10,2013-09-27 02:05:00,
2013-09-26 22:20:00,57.9,57.0,30.05,NW,304,0.0,1.0,97,0.00,,,0.00,weatherlink.com 1.10,2013-09-27 02:20:00,
2013-09-26 22:35:00,57.4,56.0,30.05,WNW,285,0.0,1.0,96,0.00,,,0.00,weatherlink.com 1.10,2013-09-27 02:35:00,
2013-09-26 22:50:00,57.0,56.0,30.05,SW,214,0.0,1.0,97,0.00,,,0.00,weatherlink.com 1.10,2013-09-27 02:50:00,
2013-09-26 23:05:00,56.6,56.0,30.05,SW,214,0.0,1.0,97,0.00,,,0.00,weatherlink.com 1.10,2013-09-27 03:05:00,
2013-09-26 23:20:00,57.3,57.0,30.05,NNE,18,0.0,1.0,97,0.00,,,0.00,weatherlink.com 1.10,2013-09-27 03:20:00,
2013-09-26 23:35:00,56.5,56.0,30.06,SSW,203,0.0,1.0,97,0.00,,,0.00,weatherlink.com 1.10,2013-09-27 03:35:00,
2013-09-26 23:50:00,56.2,55.0,30.06,SW,224,0.0,1.0,97,0.00,,,0.00,weatherlink.com 1.10,2013-09-27 03:50:00,